North Myrtle Beach, SC

2:04 AM EST on February 07, 2016 (GMT -0500)
Grand Strand

Weather History for KCRE - September, 2013

Change the Weather History Date:

Sunday, September 1, 2013

  Actual Average Record
Temperature  
Mean Temperature 82 °F 78 °F  
Max Temperature 86 °F 86 °F 92 °F (2012)
Min Temperature 77 °F 70 °F 59 °F (1999)
Degree Days  
Heating Degree Days 0 0  
Month to date heating degree days 0 0  
Since 1 July heating degree days 0 0  
Cooling Degree Days 17 13  
Month to date cooling degree days 17 13  
Year to date cooling degree days 1468 1489  
Growing Degree Days 32 (Base 50)    
Moisture  
Dew Point 76 °F    
Average Humidity 84    
Maximum Humidity 94    
Minimum Humidity 74    
Precipitation  
Precipitation 0.00 in 0.26 in 1.11 in (2004)
Month to date precipitation 0.00 0.26  
Year to date precipitation 40.76 35.61  
Sea Level Pressure  
Sea Level Pressure 29.92 in    
Wind  
Wind Speed 11 mph (SW)    
Max Wind Speed 21 mph    
Max Gust Speed 26 mph    
Visibility 10 miles    
Events      
T = Trace of Precipitation, MM = Missing Value Source: NWS Daily Summary

Daily Weather History Graph

Daily Weather History Graph

Search for Another Location

Airport or City:

Trip Planner

Search our weather history database for the weather conditions in past years. The results will help you decide how hot, cold, wet, or windy it might be!

Date:

Astronomy

Sep. 01, 2013 Rise Set
Actual Time 6:48 AM EDT 7:40 PM EDT
Civil Twilight 6:23 AM EDT 8:05 PM EDT
Nautical Twilight 5:53 AM EDT 8:35 PM EDT
Astronomical Twilight 5:22 AM EDT 9:06 PM EDT
Moon 3:15 AM EDT (9/1) 5:10 PM EDT (9/1)
Length of Visible Light 13h 42m
Length of Day
12h 51m
Waning Crescent, 14% of the Moon is Illuminated
Sep 1
Waning Crescent
Sep 5
New
Sep 12
First Quarter
Sep 19
Full
Sep 26
Last Quarter

Hourly Weather History & Observations

Time (EDT) Temp. Heat Index Dew Point Humidity Pressure Visibility Wind Dir Wind Speed Gust Speed Precip Events Conditions
12:53 AM 79.0 °F - 75.9 °F 90% 29.93 in 10.0 mi SW 5.8 mph - N/A   Scattered Clouds
1:53 AM 79.0 °F - 75.9 °F 90% 29.93 in 10.0 mi SW 6.9 mph - N/A   Partly Cloudy
2:10 AM 78.8 °F - 75.2 °F 89% 29.92 in 10.0 mi SW 5.8 mph - N/A   Mostly Cloudy
2:26 AM 78.8 °F - 75.2 °F 89% 29.92 in 10.0 mi Variable 3.5 mph - N/A   Scattered Clouds
2:53 AM 79.0 °F - 75.9 °F 90% 29.92 in 10.0 mi WSW 4.6 mph - N/A   Clear
3:53 AM 78.1 °F - 75.0 °F 90% 29.91 in 9.0 mi WSW 4.6 mph - N/A   Clear
4:53 AM 78.1 °F - 75.0 °F 90% 29.91 in 10.0 mi WSW 4.6 mph - N/A   Clear
5:53 AM 77.0 °F - 75.0 °F 94% 29.91 in 9.0 mi WSW 4.6 mph - N/A   Clear
6:53 AM 77.0 °F - 75.0 °F 94% 29.93 in 7.0 mi SW 6.9 mph - N/A   Clear
7:53 AM 79.0 °F - 75.9 °F 90% 29.93 in 7.0 mi West 4.6 mph - N/A   Clear
8:53 AM 81.0 °F 87.3 °F 75.9 °F 85% 29.95 in 8.0 mi West 4.6 mph - N/A   Clear
9:53 AM 82.9 °F 90.2 °F 75.0 °F 77% 29.96 in 10.0 mi WSW 10.4 mph - N/A   Clear
10:38 AM 84.2 °F 92.3 °F 75.2 °F 74% 29.96 in 10.0 mi SSW 12.7 mph - N/A   Mostly Cloudy
10:45 AM 84.2 °F 92.3 °F 75.2 °F 74% 29.95 in 10.0 mi SSW 12.7 mph - N/A   Scattered Clouds
10:53 AM 84.9 °F 94.1 °F 75.9 °F 74% 29.96 in 10.0 mi SSW 9.2 mph - N/A   Partly Cloudy
11:53 AM 86.0 °F 96.9 °F 77.0 °F 74% 29.95 in 8.0 mi South 11.5 mph - N/A   Clear
12:53 PM 86.0 °F 96.9 °F 77.0 °F 74% 29.94 in 10.0 mi South 11.5 mph - N/A   Clear
1:53 PM 84.9 °F 96.6 °F 78.1 °F 80% 29.92 in 10.0 mi SSW 13.8 mph - N/A   Clear
2:49 PM 84.2 °F 96.1 °F 78.8 °F 84% 29.90 in 10.0 mi South 15.0 mph 23.0 mph N/A   Partly Cloudy
2:53 PM 84.9 °F 97.5 °F 79.0 °F 82% 29.90 in 10.0 mi SSW 15.0 mph 23.0 mph N/A   Partly Cloudy
3:53 PM 84.9 °F 96.6 °F 78.1 °F 80% 29.88 in 10.0 mi SSW 19.6 mph - N/A   Clear
4:53 PM 84.9 °F 95.3 °F 77.0 °F 77% 29.87 in 10.0 mi SSW 17.3 mph 23.0 mph N/A   Clear
5:53 PM 84.0 °F 92.6 °F 75.9 °F 76% 29.86 in 10.0 mi SSW 17.3 mph 23.0 mph N/A   Clear
6:53 PM 82.0 °F 89.4 °F 75.9 °F 82% 29.86 in 10.0 mi SSW 12.7 mph 24.2 mph N/A   Clear
7:53 PM 81.0 °F 87.3 °F 75.9 °F 85% 29.88 in 9.0 mi SSW 15.0 mph 23.0 mph N/A   Partly Cloudy
8:53 PM 81.0 °F 86.7 °F 75.0 °F 82% 29.89 in 10.0 mi SSW 17.3 mph 25.3 mph N/A   Clear
9:53 PM 81.0 °F 87.3 °F 75.9 °F 85% 29.91 in 10.0 mi SSW 17.3 mph 24.2 mph N/A   Clear
10:53 PM 81.0 °F 87.3 °F 75.9 °F 85% 29.91 in 10.0 mi SW 19.6 mph - N/A   Partly Cloudy
11:53 PM 81.0 °F 87.3 °F 75.9 °F 85% 29.92 in 9.0 mi SW 15.0 mph 23.0 mph N/A   Partly Cloudy